NORTHEAST SUFFOLK  -  Dense Fog Advisory Dense Fog Advisory        NORTHERN NASSAU  -  Dense Fog Advisory Dense Fog Advisory        NORTHERN QUEENS  -  Dense Fog Advisory Dense Fog Advisory     Dense Fog Advisory Dense Fog Advisory        NORTHWEST SUFFOLK  -  Dense Fog Advisory Dense Fog Advisory        SOUTHEAST SUFFOLK  -  Dense Fog Advisory Dense Fog Advisory        SOUTHERN NASSAU  -  Dense Fog Advisory Dense Fog Advisory        SOUTHERN QUEENS  -  Dense Fog Advisory Dense Fog Advisory     Dense Fog Advisory Dense Fog Advisory        SOUTHWEST SUFFOLK  -  Dense Fog Advisory Dense Fog Advisory      

Active alerts

Northern Queens
  Details for Northern Queens Dense Fog Advisory  +1 additional alert
Southern Queens
  Details for Southern Queens Dense Fog Advisory  +1 additional alert
Northern Nassau
  Details for Northern Nassau Dense Fog Advisory
Southern Nassau
  Details for Southern Nassau Dense Fog Advisory
Northwest Suffolk
  Details for Northwest Suffolk Dense Fog Advisory
Southwest Suffolk
  Details for Southwest Suffolk Dense Fog Advisory
Northeast Suffolk
  Details for Northeast Suffolk Dense Fog Advisory
Southeast Suffolk
  Details for Southeast Suffolk Dense Fog Advisory


WXM80 ListenWXM80 Stop

You find our weather info also at:

UK Metoffice

WeatherCloud

Weather Underground

Northeastern Weather Network

AWEKAS

Citizen Weather Observer Program (CWOP)

HAMweather, WeatherForYou, PWS Weather


Weather Underground History page Text

Daily Summary for January 29, 2018 Units:  Metric    English   Both
« Previous Day
Next Day »
Daily Weekly Monthly Yearly Custom
  High: Low: Average:
Temperature: -17.8 °C 0.3 °C 3.1 °C
Dew Point: -17.8 °C -2.8 °C 0.9 °C
Humidity: Humidity % 76 % 86 %
Wind Speed: 0 km/h 0 km/h 7.7 km/h
Wind Gust: 0 km/h - -
Wind:- - ENE
Pressure: 0 hPa 1007.7 hPa -
Precipitation: 0 mm    
Historical Graphs
 
 
Tabular Data for January 29, 2018
Time Temperature Dew Point Pressure Wind Wind Speed Wind Gust Humidity Rainfall Rate (Hourly)
-17.8 °C -17.8 °C 0 hPa Calm     Humidity % 0 mm
00:00 4.6 °C 3.7 °C 1015.8 hPa WSW 0.5 km/h 3.7 km/h 94 % 0 mm
00:05 4.4 °C 3.7 °C 1015.8 hPa Calm     95 % 0 mm
00:10 4.4 °C 3.6 °C 1015.8 hPa Calm     94 % 0 mm
00:15 4.3 °C 3.4 °C 1015.8 hPa Calm     94 % 0 mm
00:20 4.3 °C 3.4 °C 1015.8 hPa Calm     94 % 0 mm
00:25 4.2 °C 3.3 °C 1015.8 hPa Calm     94 % 0 mm
00:30 4.2 °C 3.3 °C 1015.8 hPa Calm     94 % 0 mm
00:36 4.1 °C 3.2 °C 1015.8 hPa Calm   1.6 km/h 94 % 0 mm
00:41 4.1 °C 3.2 °C 1015.8 hPa Calm     94 % 0 mm
00:46 4 °C 3.1 °C 1015.8 hPa Calm     94 % 0 mm
00:51 3.9 °C 3.1 °C 1015.8 hPa Calm   1.6 km/h 94 % 0 mm
00:56 3.9 °C 3.1 °C 1015.8 hPa Calm     94 % 0 mm
01:01 3.8 °C 2.9 °C 1015.8 hPa Calm     94 % 0 mm
01:06 3.8 °C 2.9 °C 1015.8 hPa Calm     94 % 0 mm
01:11 3.8 °C 3.1 °C 1015.8 hPa Calm     95 % 0 mm
01:16 3.8 °C 2.9 °C 1015.8 hPa Calm     94 % 0 mm
01:21 3.8 °C 2.9 °C 1015.8 hPa Calm     94 % 0 mm
01:26 3.7 °C 2.8 °C 1015.8 hPa Calm     94 % 0 mm
01:31 3.7 °C 2.8 °C 1015.8 hPa Calm     94 % 0 mm
01:36 3.7 °C 2.8 °C 1015.8 hPa Calm     94 % 0 mm
01:41 3.7 °C 2.9 °C 1015.8 hPa Calm     95 % 0 mm
01:46 3.6 °C 2.9 °C 1015.8 hPa Calm     95 % 0 mm
01:51 3.6 °C 2.8 °C 1016.1 hPa WSW 1 km/h 3.7 km/h 95 % 0 mm
01:56 3.6 °C 2.8 °C 1015.8 hPa Calm     95 % 0 mm
02:01 3.5 °C 2.8 °C 1015.8 hPa WSW 0.3 km/h 1.9 km/h 95 % 0 mm
02:06 3.5 °C 2.8 °C 1015.8 hPa Calm     95 % 0 mm
02:11 3.4 °C 2.7 °C 1016.1 hPa Calm     95 % 0 mm
02:17 3.4 °C 2.7 °C 1016.1 hPa Calm   1.6 km/h 95 % 0 mm
02:22 3.3 °C 2.6 °C 1015.8 hPa Calm     95 % 0 mm
02:27 3.3 °C 2.6 °C 1015.8 hPa Calm     95 % 0 mm
02:32 3.3 °C 2.6 °C 1015.8 hPa Calm     95 % 0 mm
02:37 3.2 °C 2.5 °C 1015.8 hPa WNW 1.6 km/h 3.7 km/h 95 % 0 mm
02:42 3.2 °C 2.4 °C 1015.8 hPa NNE 3.2 km/h 5.6 km/h 95 % 0 mm
02:47 3.1 °C 2.2 °C 1015.8 hPa NNE 2.1 km/h 3.7 km/h 94 % 0 mm
02:52 3 °C 2.1 °C 1015.5 hPa NNE 0.8 km/h 7.4 km/h 94 % 0 mm
02:57 2.9 °C 2.1 °C 1015.8 hPa NNE 2.7 km/h 5.6 km/h 94 % 0 mm
03:02 2.9 °C 2 °C 1015.5 hPa North 2.7 km/h 7.4 km/h 94 % 0 mm
03:07 2.8 °C 1.9 °C 1015.5 hPa NNE 5.3 km/h 6.4 km/h 94 % 0 mm
03:12 2.8 °C 1.9 °C 1015.1 hPa North 3.2 km/h 7.4 km/h 94 % 0 mm
03:17 2.7 °C 1.8 °C 1015.1 hPa NNE 0.3 km/h 1.9 km/h 94 % 0 mm
03:22 2.7 °C 1.8 °C 1015.1 hPa NNE 2.1 km/h 5.6 km/h 94 % 0 mm
03:27 2.7 °C 1.8 °C 1015.1 hPa NNE 4 km/h 7.4 km/h 94 % 0 mm
03:32 2.7 °C 1.8 °C 1014.8 hPa North 5 km/h 7.4 km/h 94 % 0 mm
03:37 2.6 °C 1.7 °C 1014.8 hPa NNE 8.2 km/h 9.3 km/h 94 % 0 mm
03:42 2.6 °C 1.6 °C 1014.8 hPa NNE 7.2 km/h 13 km/h 93 % 0 mm
03:47 2.6 °C 1.6 °C 1014.8 hPa NNE 9.5 km/h 14.8 km/h 93 % 0 mm
03:52 2.7 °C 1.7 °C 1014.8 hPa NNE 6.3 km/h 13 km/h 93 % 0 mm
03:58 2.7 °C 1.5 °C 1014.8 hPa NNE 8.9 km/h 9.3 km/h 92 % 0 mm
04:03 2.7 °C 1.4 °C 1014.8 hPa North 5.5 km/h 9.3 km/h 91 % 0 mm
04:08 2.7 °C 1.4 °C 1014.8 hPa North 7.6 km/h 7.6 km/h 91 % 0 mm
04:13 2.7 °C 1.2 °C 1014.4 hPa NNE 4.8 km/h 9.3 km/h 90 % 0 mm
04:18 2.8 °C 1.3 °C 1014.8 hPa North 5.6 km/h 11.1 km/h 90 % 0 mm
04:23 2.8 °C 1.3 °C 1015.1 hPa North 4.8 km/h 13 km/h 90 % 0 mm
04:28 2.8 °C 1.2 °C 1015.1 hPa NNE 1.4 km/h 5.6 km/h 89 % 0 mm
04:33 2.8 °C 1.2 °C 1015.1 hPa NNE 4 km/h 9.3 km/h 89 % 0 mm
04:38 2.8 °C 1.2 °C 1014.8 hPa NNE 2.6 km/h 13 km/h 89 % 0 mm
04:43 2.8 °C 1.2 °C 1014.8 hPa North 5.1 km/h 9.3 km/h 89 % 0 mm
04:48 2.8 °C 1.2 °C 1015.1 hPa NNE 3.9 km/h 5.6 km/h 89 % 0 mm
04:53 2.8 °C 1 °C 1015.1 hPa NNE 1.9 km/h 9.3 km/h 88 % 0 mm
04:58 2.8 °C 1 °C 1015.1 hPa NNE 3.7 km/h 5.6 km/h 88 % 0 mm
05:03 2.8 °C 1.2 °C 1015.1 hPa NNE 2.4 km/h 5.6 km/h 89 % 0 mm
05:08 2.8 °C 1.2 °C 1015.1 hPa NNE 0.2 km/h 3.7 km/h 89 % 0 mm
05:13 2.8 °C 1 °C 1015.1 hPa Calm   1.9 km/h 88 % 0 mm
05:18 2.8 °C 1 °C 1015.5 hPa Calm     88 % 0 mm
05:23 2.8 °C 1 °C 1015.1 hPa Calm   1.9 km/h 88 % 0 mm
05:28 2.7 °C 0.9 °C 1015.1 hPa Calm     88 % 0 mm
05:33 2.7 °C 0.9 °C 1015.1 hPa Calm     88 % 0 mm
05:38 2.7 °C 0.9 °C 1014.8 hPa Calm   1.9 km/h 88 % 0 mm
05:44 2.7 °C 1.1 °C 1014.8 hPa Calm     89 % 0 mm
05:49 2.6 °C 1 °C 1014.8 hPa Calm     89 % 0 mm
05:54 2.6 °C 0.9 °C 1015.1 hPa Calm     89 % 0 mm
05:59 2.6 °C 0.9 °C 1015.5 hPa Calm     89 % 0 mm
06:04 2.5 °C 0.9 °C 1015.5 hPa Calm     89 % 0 mm
06:09 2.4 °C 0.8 °C 1015.5 hPa Calm     89 % 0 mm
06:14 2.4 °C 0.8 °C 1015.5 hPa Calm     89 % 0 mm
06:19 2.3 °C 0.7 °C 1015.5 hPa Calm     89 % 0 mm
06:24 2.3 °C 0.7 °C 1015.5 hPa Calm     89 % 0 mm
06:29 2.3 °C 0.7 °C 1015.5 hPa Calm     89 % 0 mm
06:34 2.3 °C 0.7 °C 1015.5 hPa Calm     89 % 0 mm
06:39 2.2 °C 0.8 °C 1015.8 hPa Calm     90 % 0 mm
06:44 2.2 °C 0.7 °C 1015.8 hPa Calm     90 % 0 mm
06:49 2.1 °C 0.7 °C 1015.5 hPa Calm     90 % 0 mm
06:54 2.1 °C 0.7 °C 1015.5 hPa Calm     90 % 0 mm
06:59 2.1 °C 0.6 °C 1015.8 hPa NE 2.3 km/h 3.7 km/h 90 % 0 mm
07:04 2 °C 0.6 °C 1015.8 hPa NE 2.4 km/h 4.8 km/h 90 % 0 mm
07:09 1.9 °C 0.5 °C 1015.8 hPa North 7.2 km/h 11.1 km/h 90 % 0 mm
07:14 1.9 °C 0.5 °C 1015.8 hPa NNE 6.9 km/h 13 km/h 90 % 0 mm
07:20 2 °C 0.6 °C 1015.8 hPa NNE 8.2 km/h 11.1 km/h 90 % 0 mm
07:25 2.1 °C 0.6 °C 1015.8 hPa NNE 8 km/h 11.3 km/h 90 % 0 mm
07:30 2.1 °C 0.7 °C 1015.5 hPa NE 7.7 km/h 13 km/h 90 % 0 mm
07:35 2.2 °C 0.6 °C 1015.5 hPa North 8.5 km/h 13 km/h 89 % 0 mm
07:40 2.3 °C 0.7 °C 1015.5 hPa NNE 3.5 km/h 5.6 km/h 89 % 0 mm
07:45 2.3 °C 0.7 °C 1015.5 hPa NNE 8.2 km/h 14.8 km/h 89 % 0 mm
07:50 2.4 °C 0.8 °C 1015.5 hPa NNE 7.2 km/h 9.3 km/h 89 % 0 mm
07:55 2.4 °C 0.8 °C 1015.1 hPa NNE 9.3 km/h 16.7 km/h 89 % 0 mm
08:00 2.5 °C 0.7 °C 1015.1 hPa NE 10.3 km/h 14.8 km/h 88 % 0 mm
08:05 2.6 °C 0.8 °C 1015.5 hPa NNE 9.2 km/h 13 km/h 88 % 0 mm
08:10 2.6 °C 0.8 °C 1015.1 hPa NNE 9.7 km/h 14.8 km/h 88 % 0 mm
08:15 2.7 °C 0.9 °C 1015.1 hPa NNE 11.7 km/h 16.7 km/h 88 % 0 mm
08:20 2.8 °C 0.8 °C 1015.5 hPa NNE 9.8 km/h 14.5 km/h 87 % 0 mm
08:25 2.8 °C 0.8 °C 1015.5 hPa North 9.8 km/h 14.8 km/h 87 % 0 mm
08:30 2.9 °C 0.9 °C 1015.5 hPa NNE 9.8 km/h 14.8 km/h 87 % 0 mm
08:35 2.9 °C 1 °C 1015.1 hPa NE 7.7 km/h 11.1 km/h 87 % 0 mm
08:40 3 °C 1.1 °C 1015.5 hPa NNE 4.5 km/h 11.1 km/h 87 % 0 mm
08:46 3.1 °C 1.1 °C 1015.5 hPa NNE 6.1 km/h 9.7 km/h 87 % 0 mm
08:51 3.1 °C 1.1 °C 1015.5 hPa NNE 4.8 km/h 11.3 km/h 87 % 0 mm
08:56 3.1 °C 1 °C 1015.1 hPa NNE 8 km/h 14.5 km/h 86 % 0 mm
09:01 3.2 °C 1.1 °C 1015.1 hPa NNE 6.8 km/h 13 km/h 86 % 0 mm
09:06 3.2 °C 1.1 °C 1015.1 hPa NNE 8 km/h 14.5 km/h 86 % 0 mm
09:11 3.2 °C 1.1 °C 1015.1 hPa NNE 8 km/h 14.5 km/h 86 % 0 mm
09:16 3.3 °C 1.2 °C 1015.1 hPa NNE 8 km/h 12.9 km/h 86 % 0 mm
09:21 3.3 °C 1.2 °C 1015.1 hPa NE 4.5 km/h 7.4 km/h 86 % 0 mm
09:26 3.4 °C 1.3 °C 1015.1 hPa NE 4.8 km/h 8 km/h 86 % 0 mm
09:31 3.5 °C 1.4 °C 1015.1 hPa NE 3.2 km/h 8 km/h 86 % 0 mm
09:36 3.6 °C 1.3 °C 1015.1 hPa NE 3.2 km/h 11.3 km/h 85 % 0 mm
09:41 3.7 °C 1.4 °C 1015.5 hPa ENE 3.2 km/h 8 km/h 85 % 0 mm
09:46 3.8 °C 1.2 °C 1015.1 hPa ENE 8 km/h 16.1 km/h 83 % 0 mm
09:51 3.7 °C 1.1 °C 1015.1 hPa ENE 7.6 km/h 11.3 km/h 83 % 0 mm
09:56 3.7 °C 1.1 °C 1015.1 hPa ENE 4.8 km/h 11.3 km/h 83 % 0 mm
10:01 3.6 °C 1.1 °C 1015.1 hPa ENE 6 km/h 7.4 km/h 84 % 0 mm
10:06 3.6 °C 1.1 °C 1015.1 hPa ENE 9.7 km/h 14.5 km/h 84 % 0 mm
10:11 3.6 °C 0.9 °C 1015.1 hPa ENE 8 km/h 14.5 km/h 83 % 0 mm
10:16 3.6 °C 0.9 °C 1015.1 hPa ENE 9.7 km/h 19.3 km/h 83 % 0 mm
10:21 3.6 °C 1 °C 1015.1 hPa ENE 9.7 km/h 14.5 km/h 83 % 0 mm
10:26 3.7 °C 1.1 °C 1015.1 hPa ENE 9.7 km/h 19.3 km/h 83 % 0 mm
10:31 3.7 °C 1.1 °C 1015.1 hPa ENE 11.3 km/h 16.1 km/h 83 % 0 mm
10:36 3.8 °C 1 °C 1014.8 hPa ENE 9.7 km/h 19.3 km/h 82 % 0 mm
10:41 3.8 °C 1 °C 1014.8 hPa ENE 9.7 km/h 19.3 km/h 82 % 0 mm
10:46 3.7 °C 0.9 °C 1014.8 hPa ENE 9.7 km/h 19.3 km/h 82 % 0 mm
10:51 3.7 °C 1.1 °C 1014.8 hPa NE 7.4 km/h 14.8 km/h 83 % 0 mm
10:56 3.7 °C 1.1 °C 1014.4 hPa ENE 9.7 km/h 16.1 km/h 83 % 0 mm
11:01 3.7 °C 1.1 °C 1014.4 hPa NE 9 km/h 18.5 km/h 83 % 0 mm
11:06 3.7 °C 1.1 °C 1014.4 hPa ENE 9.5 km/h 16.7 km/h 83 % 0 mm
11:11 3.6 °C 1 °C 1014.4 hPa ENE 10 km/h 14.8 km/h 83 % 0 mm
11:16 3.5 °C 0.9 °C 1014.1 hPa ENE 9.3 km/h 16.7 km/h 83 % 0 mm
11:21 3.4 °C 0.8 °C 1014.4 hPa ENE 7.9 km/h 14.8 km/h 83 % 0 mm
11:26 3.4 °C 1 °C 1014.4 hPa ENE 6.3 km/h 13 km/h 84 % 0 mm
11:31 3.4 °C 0.8 °C 1014.4 hPa NE 7.9 km/h 16.7 km/h 83 % 0 mm
11:36 3.6 °C 1.2 °C 1014.4 hPa ENE 7.4 km/h 16.7 km/h 84 % 0 mm
11:41 3.8 °C 1.3 °C 1014.1 hPa NE 8.2 km/h 13 km/h 84 % 0 mm
11:46 3.9 °C 1.6 °C 1014.1 hPa NE 5.1 km/h 9.3 km/h 85 % 0 mm
11:51 4.1 °C 1.7 °C 1014.1 hPa NE 4.7 km/h 7.4 km/h 84 % 0 mm
11:56 4.3 °C 1.8 °C 1013.8 hPa NE 4 km/h 5.6 km/h 84 % 0 mm
12:01 4.5 °C 2.1 °C 1013.4 hPa NE 5 km/h 7.4 km/h 84 % 0 mm
12:06 4.6 °C 1.7 °C 1013.4 hPa ENE 8.2 km/h 18.5 km/h 82 % 0 mm
12:11 4.6 °C 1.7 °C 1013.4 hPa ENE 4.5 km/h 7.4 km/h 82 % 0 mm
12:16 4.5 °C 1.5 °C 1013.1 hPa ENE 7.1 km/h 14.8 km/h 81 % 0 mm
12:22 4.5 °C 1.5 °C 1013.1 hPa ENE 10 km/h 18.5 km/h 81 % 0 mm
12:27 4.5 °C 1.5 °C 1012.8 hPa ENE 8.5 km/h 14.8 km/h 81 % 0 mm
12:32 4.4 °C 1.4 °C 1012.8 hPa ENE 7.6 km/h 16.7 km/h 81 % 0 mm
12:37 4.4 °C 1.4 °C 1012.8 hPa East 6.4 km/h 11.1 km/h 81 % 0 mm
12:42 4.4 °C 1.6 °C 1012.4 hPa NNE 4.8 km/h 11.1 km/h 82 % 0 mm
12:47 4.6 °C 1.8 °C 1012.4 hPa NNE 4.3 km/h 11.1 km/h 82 % 0 mm
12:52 4.7 °C 1.7 °C 1012.4 hPa ENE 10.6 km/h 13 km/h 81 % 0 mm
12:57 4.6 °C 1.6 °C 1012.4 hPa ENE 7.9 km/h 14.8 km/h 81 % 0 mm
13:02 4.6 °C 1.4 °C 1012.4 hPa ENE 11.1 km/h 16.7 km/h 80 % 0 mm
13:07 4.5 °C 1.5 °C 1012.1 hPa ENE 8.7 km/h 13 km/h 81 % 0 mm
13:12 4.4 °C 1.4 °C 1012.1 hPa NE 9.2 km/h 16.7 km/h 81 % 0 mm
13:17 4.4 °C 1.4 °C 1012.1 hPa NE 9.7 km/h 11.3 km/h 81 % 0 mm
13:22 4.4 °C 1.4 °C 1012.1 hPa ENE 9.3 km/h 13 km/h 81 % 0 mm
13:27 4.4 °C 1.4 °C 1012.1 hPa ENE 9 km/h 16.7 km/h 81 % 0 mm
13:32 4.5 °C 1.7 °C 1011.7 hPa ENE 8.5 km/h 13 km/h 82 % 0 mm
13:37 4.5 °C 1.7 °C 1012.1 hPa ENE 5.3 km/h 11.1 km/h 82 % 0 mm
13:43 4.5 °C 1.5 °C 1011.7 hPa ENE 8 km/h 16.7 km/h 81 % 0 mm
13:48 4.4 °C 1.6 °C 1011.7 hPa ENE 7.2 km/h 8 km/h 82 % 0 mm
13:53 4.4 °C 1.6 °C 1011.7 hPa NE 6.1 km/h 14.8 km/h 82 % 0 mm
13:58 4.4 °C 1.6 °C 1011.7 hPa ENE 6.3 km/h 9.3 km/h 82 % 0 mm
14:03 4.4 °C 1.6 °C 1011.4 hPa ENE 8 km/h 13 km/h 82 % 0 mm
14:08 4.4 °C 1.6 °C 1011.7 hPa ENE 9.3 km/h 13 km/h 82 % 0 mm
14:13 4.4 °C 1.6 °C 1011.4 hPa NE 6.6 km/h 11.1 km/h 82 % 0 mm
14:18 4.4 °C 1.6 °C 1011.4 hPa ENE 5.6 km/h 14.5 km/h 82 % 0 mm
14:23 4.3 °C 1.6 °C 1011.4 hPa ENE 8.5 km/h 13 km/h 82 % 0 mm
14:28 4.3 °C 1.6 °C 1011.1 hPa ENE 7.7 km/h 11.1 km/h 82 % 0 mm
14:33 4.3 °C 1.5 °C 1011.1 hPa ENE 8.5 km/h 14.8 km/h 82 % 0 mm
14:38 4.2 °C 1.6 °C 1011.1 hPa ENE 12.4 km/h 14.8 km/h 83 % 0 mm
14:43 4.2 °C 1.6 °C 1011.1 hPa ENE 9.3 km/h 16.7 km/h 83 % 0 mm
14:48 4.2 °C 1.6 °C 1010.7 hPa ENE 9.8 km/h 16.7 km/h 83 % 0 mm
14:53 4.2 °C 1.6 °C 1010.7 hPa ENE 7.7 km/h 16.7 km/h 83 % 0 mm
14:58 4.2 °C 1.7 °C 1010.7 hPa ENE 8.2 km/h 11.1 km/h 84 % 0 mm
15:03 4.1 °C 1.7 °C 1010.4 hPa ENE 6.3 km/h 11.1 km/h 84 % 0 mm
15:09 4.1 °C 1.7 °C 1010.7 hPa ENE 5 km/h 11.1 km/h 84 % 0 mm
15:14 4.2 °C 1.9 °C 1010.7 hPa East 4.5 km/h 8 km/h 85 % 0 mm
15:19 4.2 °C 1.9 °C 1010.4 hPa ENE 4.8 km/h 5.6 km/h 85 % 0 mm
15:24 4.1 °C 1.7 °C 1010.7 hPa ENE 5.8 km/h 7.4 km/h 84 % 0 mm
15:29 4.1 °C 1.8 °C 1010.7 hPa ENE 6.3 km/h 13 km/h 85 % 0 mm
15:34 4.1 °C 1.8 °C 1010.7 hPa ENE 5.3 km/h 11.3 km/h 85 % 0 mm
15:39 4.1 °C 1.8 °C 1010.4 hPa ENE 8.2 km/h 14.8 km/h 85 % 0 mm
15:44 4.1 °C 1.8 °C 1010.4 hPa ENE 5.6 km/h 7.4 km/h 85 % 0 mm
15:49 4.1 °C 1.8 °C 1010.7 hPa ENE 4.8 km/h 7.4 km/h 85 % 0 mm
15:54 4 °C 1.7 °C 1010.4 hPa NE 10 km/h 14.8 km/h 85 % 0 mm
15:59 4 °C 1.6 °C 1010.4 hPa ENE 11.1 km/h 16.7 km/h 84 % 0 mm
16:04 4.1 °C 1.4 °C 1010.4 hPa East 15.3 km/h 20.9 km/h 83 % 0 mm
16:09 4.1 °C 1.3 °C 1010.4 hPa ENE 14 km/h 25.9 km/h 82 % 0 mm
16:14 4.1 °C 1.2 °C 1010.4 hPa ENE 13.5 km/h 18.5 km/h 81 % 0 mm
16:19 4.1 °C 1.1 °C 1010 hPa ENE 16.1 km/h 22.2 km/h 81 % 0 mm
16:24 4.1 °C 1.1 °C 1010 hPa ENE 16.7 km/h 20.9 km/h 81 % 0 mm
16:29 4 °C 1.1 °C 1010 hPa East 16.7 km/h 22.5 km/h 81 % 0 mm
16:34 3.9 °C 1.2 °C 1010 hPa ENE 13.4 km/h 14.8 km/h 82 % 0 mm
16:39 3.8 °C 1.1 °C 1010.4 hPa ENE 12.6 km/h 18.5 km/h 82 % 0 mm
16:45 3.8 °C 1.2 °C 1010 hPa NE 12.4 km/h 18.5 km/h 83 % 0 mm
16:50 3.7 °C 1.1 °C 1010 hPa ENE 12.4 km/h 24.1 km/h 83 % 0 mm
16:55 3.7 °C 1.1 °C 1010.4 hPa ENE 9.2 km/h 16.7 km/h 83 % 0 mm
17:00 3.7 °C 1.1 °C 1010.4 hPa ENE 9.8 km/h 16.7 km/h 83 % 0 mm
17:05 3.6 °C 1.2 °C 1010.4 hPa ENE 7.6 km/h 13 km/h 84 % 0 mm
17:10 3.6 °C 0.9 °C 1010.4 hPa ENE 7.2 km/h 14.8 km/h 83 % 0 mm
17:15 3.5 °C 0.9 °C 1010.4 hPa ENE 10.1 km/h 14.8 km/h 83 % 0 mm
17:20 3.4 °C 1 °C 1010.4 hPa ENE 5.6 km/h 13 km/h 84 % 0 mm
17:25 3.4 °C 1.1 °C 1010.4 hPa ENE 7.6 km/h 11.1 km/h 85 % 0 mm
17:30 3.3 °C 1.1 °C 1010.4 hPa NE 6.4 km/h 13 km/h 85 % 0 mm
17:35 3.2 °C 1.1 °C 1010.4 hPa NE 5.8 km/h 9.7 km/h 86 % 0 mm
17:40 3.2 °C 1.1 °C 1010.4 hPa ENE 4.5 km/h 7.4 km/h 86 % 0 mm
17:45 3.2 °C 1.1 °C 1010.7 hPa ENE 7.2 km/h 11.1 km/h 86 % 0 mm
17:50 3.2 °C 0.9 °C 1010.7 hPa East 8.7 km/h 14.8 km/h 85 % 0 mm
17:55 3.2 °C 0.8 °C 1010.4 hPa NE 12.7 km/h 18.5 km/h 84 % 0 mm
18:00 3.2 °C 0.8 °C 1010.4 hPa NE 12.1 km/h 16.7 km/h 84 % 0 mm
18:05 3.2 °C 0.8 °C 1010 hPa NE 10.3 km/h 20.4 km/h 84 % 0 mm
18:11 3.2 °C 0.8 °C 1010.4 hPa ENE 11.3 km/h 19.3 km/h 84 % 0 mm
18:15 3.2 °C 0.8 °C 1010.4 hPa ENE 11.3 km/h 20.9 km/h 84 % 0 mm
18:21 3.2 °C 0.6 °C 1010.4 hPa ENE 11.3 km/h 20.9 km/h 83 % 0 mm
18:26 3.2 °C 0.8 °C 1010 hPa ENE 12.9 km/h 19.3 km/h 84 % 0 mm
18:30 3.2 °C 0.8 °C 1010 hPa ENE 11.3 km/h 24.1 km/h 84 % 0 mm
18:36 3.2 °C 0.8 °C 1010 hPa ENE 9.7 km/h 20.9 km/h 84 % 0 mm
18:41 3.2 °C 0.6 °C 1009.7 hPa ENE 12.9 km/h 20.9 km/h 83 % 0 mm
18:45 3.2 °C 0.7 °C 1009.7 hPa ENE 9.7 km/h 20.9 km/h 84 % 0 mm
18:50 3.2 °C 0.7 °C 1009.7 hPa ENE 8 km/h 14.5 km/h 84 % 0 mm
18:55 3.1 °C 0.7 °C 1009.7 hPa ENE 11.3 km/h 16.1 km/h 84 % 0 mm
19:01 3.1 °C 0.7 °C 1009.7 hPa NE 10.1 km/h 11.3 km/h 84 % 0 mm
19:05 3.1 °C 0.7 °C 1009.7 hPa ENE 12.9 km/h 19.3 km/h 84 % 0 mm
19:10 3.1 °C 0.7 °C 1009.7 hPa ENE 11.3 km/h 19.3 km/h 84 % 0 mm
19:15 3.1 °C 0.7 °C 1009.7 hPa ENE 14.5 km/h 22.5 km/h 84 % 0 mm
19:21 3.1 °C 0.7 °C 1009.7 hPa ENE 12.9 km/h 20.9 km/h 84 % 0 mm
19:25 3.1 °C 0.7 °C 1009.7 hPa ENE 14.5 km/h 24.1 km/h 84 % 0 mm
19:30 3.1 °C 0.7 °C 1009.7 hPa ENE 16.1 km/h 25.7 km/h 84 % 0 mm
19:35 3.1 °C 0.6 °C 1009.7 hPa ENE 14.5 km/h 24.1 km/h 84 % 0 mm
19:40 3.1 °C 0.8 °C 1009.4 hPa ENE 14.2 km/h 18.5 km/h 85 % 0 mm
19:41 3.1 °C 0.8 °C 1009.4 hPa NE 14.8 km/h 18.5 km/h 85 % 0 mm
19:46 3 °C 0.7 °C 1009.4 hPa ENE 13.4 km/h 20.9 km/h 85 % 0 mm
19:51 2.9 °C 0.7 °C 1009.4 hPa ENE 11.7 km/h 16.7 km/h 85 % 0 mm
19:56 2.9 °C 0.8 °C 1009.4 hPa ENE 11.3 km/h 14.8 km/h 86 % 0 mm
20:01 2.8 °C 0.7 °C 1009.4 hPa ENE 12.9 km/h 16.7 km/h 86 % 0 mm
20:06 2.8 °C 0.8 °C 1009.7 hPa ENE 11.6 km/h 16.7 km/h 87 % 0 mm
20:11 2.7 °C 0.8 °C 1009.7 hPa ENE 10.6 km/h 14.8 km/h 87 % 0 mm
20:16 2.7 °C 0.7 °C 1009.4 hPa ENE 9 km/h 14.8 km/h 87 % 0 mm
20:21 2.7 °C 0.7 °C 1009.4 hPa ENE 8.7 km/h 16.7 km/h 87 % 0 mm
20:26 2.6 °C 0.7 °C 1009.4 hPa East 14.2 km/h 22.2 km/h 87 % 0 mm
20:32 2.6 °C 0.6 °C 1009.4 hPa ENE 12.4 km/h 16.7 km/h 87 % 0 mm
20:37 2.5 °C 0.6 °C 1009 hPa ENE 13.7 km/h 18.5 km/h 87 % 0 mm
20:39 2.5 °C 0.6 °C 1009 hPa East 11.4 km/h 16.7 km/h 87 % 0 mm
20:44 2.4 °C 0.7 °C 1009 hPa East 13.2 km/h 18.5 km/h 88 % 0 mm
20:49 2.4 °C 0.6 °C 1009 hPa East 13.4 km/h 18.5 km/h 88 % 0 mm
20:54 2.3 °C 0.6 °C 1009 hPa ENE 13.7 km/h 16.7 km/h 88 % 0 mm
20:59 2.3 °C 0.5 °C 1008.7 hPa East 16.1 km/h 20.4 km/h 88 % 0 mm
21:04 2.3 °C 0.5 °C 1009 hPa NE 15.9 km/h 25.9 km/h 88 % 0 mm
21:09 2.3 °C 0.3 °C 1008.7 hPa East 14.5 km/h 20.9 km/h 87 % 0 mm
21:14 2.2 °C 0.3 °C 1008.7 hPa NE 13.8 km/h 19.3 km/h 87 % 0 mm
21:19 2.2 °C 0.1 °C 1008.7 hPa ENE 16.6 km/h 22.2 km/h 86 % 0 mm
21:24 2.2 °C -0.1 °C 1008.7 hPa ENE 18.7 km/h 20.4 km/h 85 % 0 mm
21:29 2.1 °C -0.2 °C 1008.7 hPa NE 13.7 km/h 22.2 km/h 85 % 0 mm
21:34 2.1 °C -0.2 °C 1009 hPa East 13.7 km/h 22.5 km/h 85 % 0 mm
21:39 2 °C -0.3 °C 1009 hPa East 13 km/h 20.4 km/h 85 % 0 mm
21:44 2 °C -0.3 °C 1009 hPa NNE 15.1 km/h 20.9 km/h 85 % 0 mm
21:50 1.9 °C -0.6 °C 1009 hPa ENE 16.7 km/h 22.2 km/h 84 % 0 mm
21:55 1.9 °C -0.6 °C 1009.4 hPa ENE 12.9 km/h 24.1 km/h 84 % 0 mm
22:00 1.8 °C -0.6 °C 1009.4 hPa ENE 10.8 km/h 22.2 km/h 84 % 0 mm
22:05 1.8 °C -0.8 °C 1009.4 hPa ENE 17.2 km/h 24.1 km/h 83 % 0 mm
22:10 1.7 °C -1 °C 1009.4 hPa ENE 16.6 km/h 24.1 km/h 82 % 0 mm
22:15 1.7 °C -1.4 °C 1009 hPa ENE 17.1 km/h 24.1 km/h 80 % 0 mm
22:20 1.6 °C -1.9 °C 1009 hPa ENE 14.5 km/h 25.9 km/h 78 % 0 mm
22:25 1.5 °C -2.1 °C 1009 hPa NE 16.7 km/h 27.8 km/h 77 % 0 mm
22:30 1.4 °C -2.3 °C 1008.7 hPa ENE 18.2 km/h 27.8 km/h 76 % 0 mm
22:35 1.3 °C -2.4 °C 1008.4 hPa ENE 23.3 km/h 31.5 km/h 76 % 0 mm
22:40 1.3 °C -2.3 °C 1008.4 hPa ENE 21.1 km/h 29 km/h 77 % 0 mm
22:45 1.1 °C -2.5 °C 1008.4 hPa ENE 22 km/h 35.2 km/h 77 % 0 mm
22:50 0.9 °C -2.6 °C 1008.4 hPa East 20.3 km/h 29.6 km/h 77 % 0 mm
22:55 0.9 °C -2.3 °C 1008.4 hPa East 21.2 km/h 27.8 km/h 79 % 0 mm
23:00 0.8 °C -2.4 °C 1008 hPa East 17.2 km/h 24.1 km/h 79 % 0 mm
23:05 0.8 °C -2.6 °C 1008 hPa ENE 20 km/h 29 km/h 78 % 0 mm
23:10 0.8 °C -2.6 °C 1008 hPa East 14.6 km/h 20.4 km/h 78 % 0 mm
23:15 0.8 °C -2.4 °C 1008.4 hPa NE 14 km/h 18.5 km/h 79 % 0 mm
23:20 0.7 °C -2.7 °C 1008 hPa ENE 15.3 km/h 24.1 km/h 78 % 0 mm
23:25 0.7 °C -2.7 °C 1007.7 hPa ENE 16.9 km/h 18.5 km/h 78 % 0 mm
23:30 0.7 °C -2.7 °C 1007.7 hPa ENE 17.1 km/h 22.2 km/h 78 % 0 mm
23:36 0.6 °C -2.8 °C 1008 hPa ENE 9.7 km/h 27.4 km/h 78 % 0 mm
23:41 0.6 °C -2.8 °C 1008 hPa ENE 14.5 km/h 25.7 km/h 78 % 0 mm
23:46 0.5 °C -2.7 °C 1008 hPa ENE 20.9 km/h 25.7 km/h 79 % 0 mm
23:51 0.4 °C -2.6 °C 1008 hPa East 11.3 km/h 11.3 km/h 80 % 0 mm
23:56 0.3 °C -2.6 °C 1007.7 hPa ENE 16.1 km/h 25.7 km/h 81 % 0 mm
Crab Meadow Weather
Compliments of Weather Underground - 3 mb

Script developed by  Jim McMurry - jmcmurry@mwt.net Adapted for the template by  Wim van der Kuil - Leuven-Template.eu

Extremes: Alaska and Hawaii have the same heat record. In Pahala, Hawaii the temperature on April 27, 1931 was 100 degrees F. Alaska's state heat record is also 100 degrees F. on June 27, 1915 at Fort Yukon.